Weather History for Miami, FL

Change the Weather History Date:

Sunday, March 24, 2013

  Actual Average Record
Temperature  
Mean Temperature 83 °F 73 °F  
Max Temperature 90 °F 81 °F 90 °F (1897)
Min Temperature 75 °F 66 °F 44 °F (1945)
Degree Days  
Heating Degree Days 0 0  
Month to date heating degree days 24 8  
Since 1 July heating degree days 60 124  
Cooling Degree Days 18 8  
Month to date cooling degree days 111 184  
Year to date cooling degree days 590 506  
Growing Degree Days 32 (Base 50)    
Moisture  
Dew Point 72 °F    
Average Humidity 76    
Maximum Humidity 100    
Minimum Humidity 52    
Precipitation  
Precipitation T in 0.10 in 0.94 in (1958)
Month to date precipitation 0.81 2.23  
Year to date precipitation 3.20 6.10  
Snow  
Snow 0.00 in - - ()
Month to date snowfall 0.0  
Since 1 July snowfall 0.0  
Snow Depth 0.00 in    
Sea Level Pressure  
Sea Level Pressure 29.81 in    
Wind  
Wind Speed 12 mph (SSW)    
Max Wind Speed 28 mph    
Max Gust Speed 38 mph    
Visibility 9 miles    
Events      
T = Trace of Precipitation, MM = Missing Value Source: NWS Daily Summary

Daily Weather History Graph

Daily Weather History Graph

Search for Another Location

Airport:

Trip Planner

Search our weather history database for the weather conditions in past years. The results will help you decide how hot, cold, wet, or windy it might be!

Date:

Astronomy

Mar. 24, 2013 Rise Set
Actual Time 7:20 AM EDT 7:34 PM EDT
Civil Twilight 6:57 AM EDT 7:57 PM EDT
Nautical Twilight 6:30 AM EDT 8:24 PM EDT
Astronomical Twilight 6:03 AM EDT 8:51 PM EDT
Moon 5:12 PM EDT (3/24) 5:15 AM EDT (3/24)
Length of Visible Light 12h 59m
Length of Day
12h 13m
Waxing Gibbous, 91% of the Moon is Illuminated
Mar 24
Waxing Gibbous
Mar 27
Full
Apr 3
Last Quarter
Apr 10
New
Apr 18
First Quarter

Hourly Weather History & Observations

Time (EDT) Temp. Heat Index Dew Point Humidity Pressure Visibility Wind Dir Wind Speed Gust Speed Precip Events Conditions
12:53 AM 74.8 °F - 74.1 °F 98% 29.91 in 9.0 mi SSE 5.8 mph - N/A   Mostly Cloudy
1:43 AM 75.2 °F - 73.4 °F 94% 29.89 in 7.0 mi SSE 4.6 mph - N/A   Mostly Cloudy
1:53 AM 75.9 °F - 74.8 °F 96% 29.88 in 8.0 mi SSE 5.8 mph - N/A   Mostly Cloudy
2:53 AM 75.9 °F - 75.2 °F 98% 29.86 in 7.0 mi SSE 5.8 mph - N/A   Scattered Clouds
3:09 AM 75.2 °F - 75.2 °F 100% 29.85 in 7.0 mi SSE 5.8 mph - N/A   Mostly Cloudy
3:53 AM 75.9 °F - 75.2 °F 98% 29.85 in 8.0 mi SSE 5.8 mph - N/A   Mostly Cloudy
4:13 AM 75.2 °F - 75.2 °F 100% 29.84 in 8.0 mi SSE 5.8 mph - N/A   Scattered Clouds
4:53 AM 75.2 °F - 74.5 °F 98% 29.84 in 7.0 mi SSE 4.6 mph - N/A   Partly Cloudy
5:53 AM 75.2 °F - 74.5 °F 98% 29.83 in 8.0 mi South 5.8 mph - N/A   Partly Cloudy
6:53 AM 75.0 °F - 73.0 °F 94% 29.83 in 10.0 mi South 6.9 mph - N/A   Partly Cloudy
7:53 AM 75.0 °F - 72.0 °F 90% 29.82 in 10.0 mi South 10.4 mph - N/A   Partly Cloudy
8:53 AM 77.0 °F - 73.0 °F 88% 29.81 in 10.0 mi South 15.0 mph 21.9 mph N/A   Scattered Clouds
9:32 AM 78.8 °F - 73.4 °F 83% 29.80 in 10.0 mi South 18.4 mph 25.3 mph N/A   Mostly Cloudy
9:53 AM 79.0 °F - 72.0 °F 79% 29.80 in 10.0 mi South 19.6 mph 28.8 mph N/A   Mostly Cloudy
10:53 AM 84.0 °F 89.0 °F 71.1 °F 65% 29.80 in 10.0 mi South 21.9 mph 34.5 mph N/A   Mostly Cloudy
11:19 AM 84.2 °F 88.4 °F 69.8 °F 62% 29.79 in 10.0 mi SSW 21.9 mph 32.2 mph N/A   Mostly Cloudy
11:53 AM 86.0 °F 90.7 °F 70.0 °F 59% 29.80 in 10.0 mi SSW 23.0 mph 36.8 mph N/A   Scattered Clouds
12:53 PM 88.0 °F 92.9 °F 70.0 °F 55% 29.80 in 10.0 mi SSW 18.4 mph 32.2 mph N/A   Mostly Cloudy
1:53 PM 87.1 °F 91.3 °F 69.1 °F 55% 29.78 in 10.0 mi SSW 19.6 mph 33.4 mph N/A   Mostly Cloudy
2:53 PM 89.1 °F 93.7 °F 69.1 °F 52% 29.76 in 10.0 mi SW 20.7 mph 29.9 mph N/A   Mostly Cloudy
3:53 PM 88.0 °F 92.1 °F 69.1 °F 53% 29.74 in 10.0 mi SSW 19.6 mph 26.5 mph N/A   Mostly Cloudy
4:53 PM 89.1 °F 94.1 °F 70.0 °F 53% 29.73 in 10.0 mi SW 15.0 mph 26.5 mph N/A   Mostly Cloudy
5:53 PM 86.0 °F 90.1 °F 69.1 °F 57% 29.73 in 10.0 mi WSW 17.3 mph 29.9 mph N/A   Scattered Clouds
6:53 PM 82.9 °F 87.0 °F 70.0 °F 65% 29.75 in 10.0 mi SW 11.5 mph 25.3 mph N/A   Scattered Clouds
7:53 PM 80.1 °F 83.2 °F 70.0 °F 71% 29.77 in 10.0 mi WSW 10.4 mph - N/A   Scattered Clouds
8:53 PM 79.0 °F - 70.0 °F 74% 29.79 in 10.0 mi WSW 8.1 mph - N/A   Partly Cloudy
9:53 PM 79.0 °F - 70.0 °F 74% 29.80 in 10.0 mi WSW 4.6 mph - N/A   Mostly Cloudy
10:53 PM 79.0 °F - 70.0 °F 74% 29.81 in 10.0 mi WSW 5.8 mph - N/A   Overcast
11:53 PM 79.0 °F - 71.1 °F 77% 29.80 in 10.0 mi WSW 6.9 mph - 0.00 in   Overcast